Regional Weather Roundup
Issued by NWS

Home | Current Version | Previous Version | Text Only | Print | Product List | Glossary Off
Versions: 1 2 3 4 5 6 7 8 9 10 11 12 13 14 15 16 17 18 19 20 21 22 23 24 25 26 27 28 29 30 31 32 33 34 35 36 37 38 39 40 41 42 43 44 45 46 47 48 49 50

000
ASUS43 KIND 291109
RWRIN

WEATHER ROUNDUP FOR INDIANA
NATIONAL WEATHER SERVICE INDIANAPOLIS IN
700 AM EDT SUN MAY 29 2016

NOTE: "FAIR" INDICATES FEW OR NO CLOUDS BELOW 12,000 FEET WITH NO
SIGNIFICANT WEATHER AND/OR OBSTRUCTIONS TO VISIBILITY.

* - STATION DOES NOT REPORT WEATHER SUCH AS PRECIPITATION OR FOG.

+ - STATION NOT QUALITY CONTROLLED BY THE NATIONAL WEATHER SERVICE.
    USE DATA WITH CAUTION...ESPECIALLY DEWPOINT AND RELATIVE
    HUMIDITY OBSERVATIONS.

INZ001>003-010>013-019-020-291200-
NORTHWEST INDIANA

CITY           SKY/WX    TMP DP  RH WIND       PRES   REMARKS
GARY /AIRPORT/ PTCLDY    66  66 100 S8        30.00R
KNOX *+        CLEAR     63  48  59 S8        30.02R
LA PORTE +     PTCLDY    65  58  78 CALM      30.02R
MICHIGAN CITY+ CLEAR     63  55  77 S5        30.01R
MONTICELLO +   PTCLDY    67  61  79 S7        30.03R
RENSSELAER +   CLEAR     63  59  88 S5        30.03R
VALPARAISO     CLEAR     63  56  78 S5        30.02R

$$

LMZ046-743>745-291200-
SOUTHERN LAKE MICHIGAN

STATION/POSITION TIME  TEMP    WIND        PRES    WAVE
                       AIR SEA DIR/SP/G            HT
                 (UTC) (F)     (DEG/KT/KT) (MB)    (FT)
BURNS HARBOR     1000   66     190/ 11/ 16 1015.6R
MICHIGAN CITY    1000   67     170/ 13/ 17   N/A
5NW MICH CITY    1100   62 56  220/  8/ 10   N/A     1

$$

INZ004-005-014>016-021>024-291200-
NORTH CENTRAL INDIANA

CITY           SKY/WX    TMP DP  RH WIND       PRES   REMARKS
GOSHEN         CLOUDY    68  63  84 S7        30.03R
LOGANSPORT +   PTCLDY    64  63  94 S7        30.05R FOG
PERU/GRISSOM   PTCLDY    67  67 100 SW9       30.04R
ROCHESTER +      N/A     70  66  88 S7        30.04R FOG
SOUTH BEND     PTCLDY    65  59  81 S8        30.02R
WARSAW +       CLOUDY    68  64  88 CALM      30.04R

$$

INZ006>009-017-018-025>027-291200-
NORTHEAST INDIANA

CITY           SKY/WX    TMP DP  RH WIND       PRES   REMARKS
ANGOLA *+        N/A     66  57  72 S5        30.04R
AUBURN +       PTCLDY    68  63  83 CALM      30.05R
FORT WAYNE     MOCLDY    68  65  90 S9        30.05R
HUNTINGTON +   PTCLDY    68  66  92 S5        30.04S

$$

INZ028-029-035-036-043>045-051>053-291200-
WEST CENTRAL INDIANA

CITY           SKY/WX    TMP DP  RH WIND       PRES   REMARKS
CRAWFORDSVL +  CLOUDY    68  68 100 S10       30.06R
GREENCASTLE +  PTCLDY    63  63 100 S3        30.08R FOG
LAFAYETTE      CLEAR     63  61  93 CALM      30.03R
TERRE HAUTE    CLEAR     66  64  93 CALM      30.06R FOG

$$

INZ030>032-037>040-046>048-054>057-064-065-291200-
CENTRAL INDIANA

CITY           SKY/WX    TMP DP  RH WIND       PRES   REMARKS
CP ATTERBURY + FOG       63  61  94 CALM      30.09R VSB 1/2
COLUMBUS       CLEAR     64  64 100 S6        30.09
FRANKFORT +      N/A     66  66 100 CALM      30.07R FOG
GREENWOOD *+   CLEAR     68  66  94 S6        30.08S
INDIANAPOLIS   MOCLDY    68  65  90 S9        30.05S
-EAGLE CREEK   PTCLDY    69  65  86 S6        30.06S
KOKOMO *+      MOCLDY    66  63  88 S8        30.04S
MARION +       MOCLDY    67  64  91 S7        30.05S FOG
SHELBYVILLE    PTCLDY    67  63  87 S7        30.08R
ZIONSVILLE +   MOCLDY    67  65  93 S8        30.07R

$$

INZ033-034-041-042-049-050-058-059-291200-
EAST CENTRAL INDIANA

CITY           SKY/WX    TMP DP  RH WIND       PRES   REMARKS
MUNCIE         CLOUDY    70  64  81 S6        30.07R

$$

INZ060-061-067>069-081>083-085>088-291200-
SOUTHWEST INDIANA

CITY           SKY/WX    TMP DP  RH WIND       PRES   REMARKS
EVANSVILLE     PTCLDY    65  64  97 CALM      30.09R
HUNTINGBURG *+ MOCLDY    64  63  94 SE6       30.10R VSB 1/2
WASHINGTON +   CLEAR     68  68 100 S8        30.07R

$$

INZ062-063-066-070>080-084-089>092-291200-
SOUTH CENTRAL AND SOUTHEAST INDIANA

CITY           SKY/WX    TMP DP  RH WIND       PRES   REMARKS
BEDFORD +      PTCLDY    66  66 100 S3        30.08S
BLOOMINGTON    CLOUDY    65  62  90 CALM      30.08R
MADISON *+     PTCLDY    64  63  94 CALM      30.13R
NORTH VERNON + CLEAR    N/A N/A N/A CALM      30.10S
SEYMOUR +      CLEAR     66  64  94 CALM      30.09R FOG

$$





USA.gov is the U.S. government's official web portal to all federal, state and local government web resources and services.